Home   Weather   Richmond Hill   Past weeks

Flag for Canada Past Weather in Richmond Hill, Ontario, Canada — Yesterday and Last 2 Weeks

Now
59 °F

Drizzle. Fog.


Feels Like: 58 °F
Forecast: N/A
Wind: 8 mph from Southeast

Location: Toronto Buttonville

Current Time: Oct 1, 2016 at 6:20:13 PM

Latest Report: Oct 1, 2016 at 5:00 PM


Visibility: 2 mi

Pressure: 30.10 "Hg

Humidity: 94%

Dew Point: 57 °F

Location of Richmond HillLocation

Past Weather in Richmond Hill — Graph

°F

Richmond Hill Temperature Yesterday

Maximum temperature yesterday: 64 °F (at 2:00 PM)
Minimum temperature yesterday: 57 °F (at 7:00 AM)
Average temperature yesterday: 60 °F

High & Low Weather Summary for the Past Weeks

 TemperatureHumidityPressure
High82 °F (Sep 20, 2:00 PM)100% (Sep 18, 5:45 AM)30.38 "Hg (Sep 18, 5:45 AM)
Low43 °F (Sep 25, 6:00 AM)22% (Sep 20, 6:00 PM)29.74 "Hg (Sep 27, 3:00 PM)
Average63 °F70%30.09 "Hg
* Reported Sep 16 5:00 PM — Oct 1 5:00 PM, Richmond Hill, Weather by CustomWeather, © 2016

Note: Actual official high and low records may vary slightly from our data, if they occured in-between our weather recording intervals... More about our weather records

Advertising

Richmond Hill Weather History for the Previous 24 Hours

Scroll right to see more
 ConditionsComfort  
Time TempWeatherWind HumidityBarometerVisibility
5:00 PM
Sat, Oct 1
59 °FDrizzle. Fog.8 mph94%30.10 "Hg2 mi
4:47 PM59 °FDrizzle. Fog.12 mph94%30.10 "Hg2 mi
4:00 PM59 °FDrizzle. Fog.9 mph94%30.10 "Hg2 mi
3:00 PM59 °FDrizzle. Low clouds.13 mph94%30.11 "Hg3 mi
2:56 PM59 °FDrizzle. Low clouds.13 mph94%30.11 "Hg3 mi
2:00 PM59 °FDrizzle. Mostly cloudy.13 mph94%30.11 "Hg3 mi
1:00 PM59 °FDrizzle. Mostly cloudy.12 mph94%30.14 "Hg3 mi
12:00 PM57 °FLight rain. Mostly cloudy.10 mph94%30.16 "Hg8 mi
11:00 AM57 °FLight rain. Low clouds.13 mph88%30.17 "Hg12 mi
10:53 AM57 °FLight rain. Low clouds.13 mph88%30.17 "Hg12 mi
10:00 AM57 °FOvercast.13 mph88%30.18 "Hg15 mi
9:00 AM57 °FMostly cloudy.14 mph82%30.19 "Hg15 mi
8:00 AM57 °FMostly cloudy.15 mph82%30.21 "Hg15 mi
7:00 AM57 °FLow clouds.10 mph82%30.20 "Hg15 mi
6:00 AM57 °FLow clouds.16 mph82%30.19 "Hg15 mi
5:00 AM57 °FLow clouds.10 mph88%30.20 "Hg15 mi
4:00 AM57 °FLow clouds.10 mph88%30.20 "Hg15 mi
3:00 AM57 °FOvercast.16 mph88%30.22 "Hg15 mi
2:00 AM57 °FOvercast.12 mph88%30.23 "Hg10 mi
1:00 AM57 °FOvercast.17 mph82%30.23 "Hg12 mi
12:00 AM57 °FOvercast.13 mph77%30.25 "Hg15 mi
11:00 PM
Fri, Sep 30
57 °FOvercast.17 mph77%30.27 "Hg15 mi
10:00 PM59 °FMostly cloudy.17 mph72%30.27 "Hg15 mi
9:00 PM61 °FMostly cloudy.13 mph68%30.28 "Hg15 mi
8:00 PM61 °FMostly cloudy.15 mph68%30.29 "Hg15 mi
7:00 PM61 °FPassing clouds.17 mph68%30.28 "Hg15 mi
6:00 PM63 °FPartly sunny.13 mph64%30.26 "Hg15 mi
Weather by CustomWeather, © 2016

See weather overviewHow to use our weather pages